Retour au catalogue

CO3D2

ActifScienceSSO
NORAD 64902·PAYLOAD·🇫🇷 France

Lancé Jul 26, 2025 depuis Guiana Space Centre

Loading…

Prochains Passages (prochaines 24 heures)

TLE

FraisSource: Space-Track

Époque: Sep 14, 2026, 13:00 UTC

1 64902U 25156D   26257.54178557  .00001456  00000-0  70378-4 0  9999
2 64902  97.4344 334.8490 0001513  99.8763 260.2643 15.20199322 63104

Suivez CO3D2 en temps réel avec AllMySat

Download on the App Store